Weather History for KSDF - August, 2013

Change the Weather History Date:

Thursday, August 1, 2013

  Actual Average Record
Temperature  
Mean Temperature 77 °F 79 °F  
Max Temperature 85 °F 89 °F 101 °F (1897)
Min Temperature 68 °F 70 °F 55 °F (1971)
Degree Days  
Heating Degree Days 0 0  
Month to date heating degree days 0 0  
Since 1 June heating degree days 0 5  
Since 1 July heating degree days 0 0  
Cooling Degree Days 12 14  
Month to date cooling degree days 12 14  
Year to date cooling degree days 949 955  
Since 1 June cooling degree days 721 781  
Growing Degree Days 26 (Base 50)    
Moisture  
Dew Point 65 °F    
Average Humidity 70    
Maximum Humidity 97    
Minimum Humidity 43    
Precipitation  
Precipitation T in 0.13 in 1.05 in (1956)
Month to date precipitation T 0.13  
Year to date precipitation 28.61 28.02  
Snow  
Snow 0.00 in 0.00 in - ()
Month to date snowfall 0.0 0.0  
Since 1 June snowfall 0.0 0.0  
Since 1 July snowfall 0.0 0.0  
Snow Depth 0.00 in    
Sea Level Pressure  
Sea Level Pressure 29.98 in    
Wind  
Wind Speed 7 mph (NW)    
Max Wind Speed 17 mph    
Max Gust Speed 22 mph    
Visibility 7 miles    
Events Rain    
T = Trace of Precipitation, MM = Missing Value Source: NWS Daily Summary

Daily Weather History Graph

Daily Weather History Graph

Search for Another Location

Airport or City:

Trip Planner

Search our weather history database for the weather conditions in past years. The results will help you decide how hot, cold, wet, or windy it might be!

Date:

Astronomy

Aug. 01, 2013 Rise Set
Actual Time 6:45 AM EDT 8:52 PM EDT
Civil Twilight 6:16 AM EDT 9:21 PM EDT
Nautical Twilight 5:40 AM EDT 9:57 PM EDT
Astronomical Twilight 5:01 AM EDT 10:35 PM EDT
Moon 2:21 AM EDT (8/1) 4:59 PM EDT (8/1)
Length of Visible Light 15h 04m
Length of Day
14h 06m
Waning Crescent, 23% of the Moon is Illuminated
Aug 1
Waning Crescent
Aug 6
New
Aug 14
First Quarter
Aug 20
Full
Aug 28
Last Quarter

Hourly Weather History & Observations

Time (EDT) Temp. Heat Index Dew Point Humidity Pressure Visibility Wind Dir Wind Speed Gust Speed Precip Events Conditions
12:56 AM 71.1 °F - 68.0 °F 90% 29.97 in 6.0 mi Calm Calm - N/A   Clear
1:56 AM 69.1 °F - 68.0 °F 96% 29.96 in 5.0 mi WNW 4.6 mph - N/A   Clear
2:56 AM 69.1 °F - 66.9 °F 93% 29.95 in 5.0 mi WNW 3.5 mph - N/A   Partly Cloudy
3:56 AM 70.0 °F - 68.0 °F 93% 29.94 in 8.0 mi SW 4.6 mph - N/A   Mostly Cloudy
4:18 AM 69.8 °F - 66.2 °F 88% 29.96 in 0.5 mi Calm Calm - N/A   Mostly Cloudy
4:27 AM 69.8 °F - 66.2 °F 88% 29.96 in 6.0 mi West 4.6 mph - N/A   Mostly Cloudy
4:56 AM 70.0 °F - 68.0 °F 93% 29.94 in 8.0 mi SW 3.5 mph - N/A   Mostly Cloudy
5:54 AM 69.8 °F - 66.2 °F 88% 29.96 in 6.0 mi Calm Calm - N/A   Mostly Cloudy
5:56 AM 69.1 °F - 68.0 °F 96% 29.95 in 6.0 mi Calm Calm - N/A   Mostly Cloudy
6:05 AM 69.8 °F - 68.0 °F 94% 29.97 in 6.0 mi Calm Calm - N/A   Overcast
6:56 AM 70.0 °F - 68.0 °F 93% 29.97 in 3.0 mi WNW 6.9 mph - N/A   Overcast
7:56 AM 71.1 °F - 68.0 °F 90% 29.99 in 3.0 mi North 8.1 mph - 0.00 in   Light Drizzle
8:12 AM 71.6 °F - 68.0 °F 88% 30.00 in 4.0 mi NW 3.5 mph - 0.00 in   Overcast
8:36 AM 71.6 °F - 68.0 °F 88% 30.00 in 4.0 mi WNW 5.8 mph - 0.00 in   Overcast
8:56 AM 72.0 °F - 68.0 °F 87% 29.99 in 4.0 mi NW 4.6 mph - 0.00 in   Overcast
9:10 AM 73.4 °F - 68.0 °F 83% 30.00 in 5.0 mi NNW 5.8 mph - N/A   Haze
9:51 AM 73.4 °F - 66.2 °F 78% 30.01 in 5.0 mi North 10.4 mph - N/A   Haze
9:56 AM 73.9 °F - 66.9 °F 79% 30.00 in 5.0 mi North 9.2 mph - N/A   Haze
10:31 AM 75.2 °F - 66.2 °F 73% 30.02 in 5.0 mi North 9.2 mph - N/A   Haze
10:56 AM 77.0 °F - 66.9 °F 71% 30.01 in 8.0 mi NNW 8.1 mph - N/A   Mostly Cloudy
11:56 AM 81.0 °F 83.0 °F 66.0 °F 60% 30.01 in 10.0 mi North 9.2 mph - N/A   Mostly Cloudy
12:56 PM 81.0 °F 82.7 °F 64.9 °F 58% 30.01 in 10.0 mi NW 3.5 mph - N/A   Mostly Cloudy
1:56 PM 80.1 °F 81.7 °F 64.0 °F 58% 30.00 in 10.0 mi WNW 10.4 mph 16.1 mph N/A   Mostly Cloudy
2:56 PM 84.0 °F 85.4 °F 64.0 °F 51% 29.99 in 10.0 mi WNW 10.4 mph - N/A   Mostly Cloudy
3:56 PM 84.0 °F 84.5 °F 62.1 °F 47% 29.99 in 10.0 mi NW 11.5 mph - N/A   Mostly Cloudy
4:56 PM 84.0 °F 84.4 °F 61.0 °F 46% 29.97 in 10.0 mi NW 11.5 mph - N/A   Scattered Clouds
5:56 PM 84.0 °F 83.8 °F 59.0 °F 43% 29.97 in 10.0 mi WNW 12.7 mph 21.9 mph N/A   Scattered Clouds
6:56 PM 82.9 °F 82.4 °F 57.0 °F 41% 29.96 in 10.0 mi NNW 15.0 mph - N/A   Scattered Clouds
7:56 PM 81.0 °F 81.1 °F 57.9 °F 45% 29.96 in 10.0 mi NW 11.5 mph - N/A   Scattered Clouds
8:56 PM 79.0 °F - 57.9 °F 48% 29.96 in 10.0 mi NW 5.8 mph - N/A   Scattered Clouds
9:56 PM 73.9 °F - 60.1 °F 62% 29.98 in 10.0 mi West 5.8 mph - N/A   Partly Cloudy
10:56 PM 73.0 °F - 61.0 °F 66% 29.99 in 10.0 mi WNW 3.5 mph - N/A   Clear
11:56 PM 73.0 °F - 61.0 °F 66% 29.99 in 10.0 mi Calm Calm - N/A   Clear